Regional Weather Roundup
Issued by NWS

Home | Current Version | Previous Version | Graphics & Text | Print | Product List | Glossary Off
Versions: 1 2 3 4 5 6 7 8 9 10 11 12 13 14 15 16 17 18 19 20 21 22 23 24 25 26 27 28 29 30 31 32 33 34 35 36 37 38 39 40 41 42 43 44 45 46 47 48 49 50

161
ASUS43 KFSD 070302
RWRSD

WEATHER ROUNDUP FOR SOUTH DAKOTA
NATIONAL WEATHER SERVICE SIOUX FALLS SD
900 PM CST SAT FEB 06 2016

NOTE: "FAIR" INDICATES FEW OR NO CLOUDS BELOW 12,000 FEET WITH NO
SIGNIFICANT WEATHER AND/OR OBSTRUCTIONS TO VISIBILITY.


SDZ001>005-009-010-012>017-070400-
NORTHWEST AND NORTH CENTRAL SOUTH DAKOTA

CITY           SKY/WX    TMP DP  RH WIND       PRES   REMARKS
BUFFALO          N/A     39  21  48 W31G43    29.87R
FAITH            N/A     38  21  50 NW23G35   29.90R
MOBRIDGE       CLEAR     41  26  55 W12       29.76R
$$

SDZ012>016-024>037-041>051-057-063-072>074-070400-
SOUTHWEST AND SOUTH CENTRAL SOUTH DAKOTA

CITY           SKY/WX    TMP DP  RH WIND       PRES   REMARKS
RAPID CTY ARPT CLOUDY    41  21  44 NW18      29.98R
PIERRE         PTCLDY    42  28  57 W18G26    29.86R
CUSTER         CLOUDY    33  13  43 NW14G28   29.97S WCI  23
ELLSWORTH AFB  CLOUDY    41  20  44 NW25      29.97R
PHILIP         PTCLDY    40  26  57 NW20G28   29.92R
PINE RIDGE     CLOUDY    37  25  61 NW8       30.01R
WINNER         FAIR      40  29  64 W12       29.91R
$$

SDZ004>011-016>023-039-040-070400-
NORTHEAST SOUTH DAKOTA

CITY           SKY/WX    TMP DP  RH WIND       PRES   REMARKS
ABERDEEN       CLOUDY    39  28  64 SW12      29.73R
WATERTOWN      CLOUDY    36  29  75 SW14      29.75R
BROOKINGS      CLOUDY    35  30  82 S9        29.77F WCI  28
SISSETON         N/A     38  31  76 SW9       29.69F
$$

SDZ017-020-022-023-036>040-048>070-070400-
SOUTHEAST SOUTH DAKOTA

CITY           SKY/WX    TMP DP  RH WIND       PRES   REMARKS
SIOUX FALLS    MOCLDY    33  26  75 SW6       29.84R WCI  28
HURON          CLOUDY    40  30  67 W16       29.80S
MITCHELL       CLOUDY    40  31  70 W14       29.84S
YANKTON        CLOUDY    39  28  65 W5        29.86R
$$

ABBREVIATIONS USED IN REMARKS
   TC - TEMPERATURE IN CELSIUS
  WCI - WIND CHILL INDEX
   HX - HEAT INDEX
  VSB - VISIBILITY





USA.gov is the U.S. government's official web portal to all federal, state and local government web resources and services.